Regional Weather Roundup
Issued by NWS

Home | Current Version | Previous Version | Text Only | Print | Product List | Glossary Off
Versions: 1 2 3 4 5 6 7 8 9 10 11 12 13 14 15 16 17 18 19 20 21 22 23 24 25 26 27 28 29 30 31 32 33 34 35 36 37 38 39 40 41 42 43 44 45 46 47 48 49 50

000
ASUS43 KLMK 231302
RWRKY
KENTUCKY REGIONAL WEATHER ROUNDUP
NATIONAL WEATHER SERVICE LOUISVILLE KY
900 AM EDT MON OCT 23 2017

NOTE "FAIR" INDICATES FEW OR NO CLOUDS BELOW 12,000 FEET
WITH NO SIGNIFICANT WEATHER AND/OR OBSTRUCTIONS TO VISIBILITY.

KYZ001>023-026-027-061>063-070>075-231400-
WESTERN AND SOUTH CENTRAL KENTUCKY

CITY           SKY/WX    TMP DP  RH WIND       PRES   REMARKS
PADUCAH        LGT RAIN  53  50  89 W8        29.87S FOG
HENDERSON      CLOUDY    54  52  93 W9        29.84R
OWENSBORO      CLOUDY    55  54  96 W14G21    29.82S FOG
HOPKINSVILLE   CLOUDY    55  55 100 W12       29.86R
BOWLING GREEN  PTSUNNY   63  62  97 NE10      29.79F
GLASGOW        NOT AVBL
$$

KYZ024-025-028>034-038-045-046-053-231400-
NORTH CENTRAL KENTUCKY

CITY           SKY/WX    TMP DP  RH WIND       PRES   REMARKS
LOUISVILLE/SDF LGT RAIN  64  62  93 S7        29.83S
LOUISVILLE/LOU LGT RAIN  61  61 100 SW5       29.84R
FORT KNOX      LGT RAIN  62  62  98 SW3       29.83R
$$

KYZ035>037-039>044-047>052-055>060-089>105-231400-
NORTHEAST KENTUCKY

CITY           SKY/WX    TMP DP  RH WIND       PRES   REMARKS
LEXINGTON      RAIN      64  59  83 S18G30    29.81F
COVINGTON      LGT RAIN  63  59  87 SE12      29.81F
FRANKFORT      RAIN      61  57  87 W12G30    29.84R FOG
$$

KYZ054-064>069-076>088-106>120-231400-
SOUTHEAST KENTUCKY

CITY           SKY/WX    TMP DP  RH WIND       PRES   REMARKS
JACKSON        CLOUDY    64  57  78 VRB6      29.89F
LONDON         LGT RAIN  64  60  87 SE7       29.86S
SOMERSET       NOT AVBL
MIDDLESBORO    RAIN      65  63  94 SE6       29.88F
MONTICELLO     HVY RAIN  61  60  97 NW18      29.89R FOG
$$





USA.gov is the U.S. government's official web portal to all federal, state and local government web resources and services.